Location: Newark
(45.2500°N, 7.5833°E)
Time: 18:42:40
(UTC+00:00)

Tiros 1 despin weight - Pass Details

Date: 28 January 2020
Orbit: 594 x 642 km, 48.2° (Epoch: 27 February)

Event Time Altitude Azimuth Distance (km) Brightness Sun altitude
Rises 13:50:21 0° 288° (WNW) 2,890 ? 20.2°
Reaches altitude 10° 13:52:39 10° 289° (WNW) 1,991 ? 20.0°
Maximum altitude 13:57:15 82° 17° (NNE) 639 ? 19.5°
Drops below altitude 10° 14:01:54 10° 106° (ESE) 2,014 ? 19.1°
Sets 14:04:14 0° 107° (ESE) 2,926 ? 18.8°
